EW3156 Weather Reports


Display with metric or nautical units.
time (UTC)temp
F
wind
direction
speed
MPH
gust
MPH
rain 1hr
in
rain 24hr
in
rain mn
in
humidity
%
barometer
mb
20260504050006 50 268 0.0 0.0 0.00 0.00 0.00 89 1018.3
20260504044504 51 268 0.0 0.0 0.00 0.00 0.00 88 1018.4
20260504043002 51 268 0.0 0.0 0.00 0.00 0.00 87 1018.6
20260504041501 52 268 0.0 0.0 0.00 0.00 0.00 85 1018.6
20260504040005 52 268 0.0 0.0 0.00 0.00 0.00 85 1018.5
20260504034503 52 268 0.0 0.0 0.00 0.00 0.00 84 1018.8
20260504033100 53 268 0.0 0.0 0.00 0.00 0.00 82 1018.9
20260504031600 53 268 0.0 0.0 0.00 0.00 0.00 80 1018.9
20260504030059 54 268 0.0 0.0 0.00 0.00 0.00 78 1018.8
20260504024559 55 268 0.0 0.0 0.00 0.00 0.00 76 1018.6
20260504023058 55 268 0.0 0.0 0.00 0.00 0.00 75 1018.5
20260504021557 56 268 0.0 0.0 0.00 0.00 0.00 73 1018.3
20260504020057 57 268 0.0 0.0 0.00 0.00 0.00 71 1018.3
20260504014611 58 268 0.0 0.0 0.00 0.00 0.00 68 1018.2
20260504013056 59 268 0.0 0.0 0.00 0.00 0.00 67 1018.0
20260504011559 60 268 0.0 0.0 0.00 0.00 0.00 62 1017.9
20260504010059 61 268 0.0 0.0 0.00 0.00 0.00 60 1017.8
20260504004555 62 268 0.0 0.0 0.00 0.00 0.00 57 1017.7
20260504003059 63 268 0.0 0.0 0.00 0.00 0.00 56 1017.5
20260504001559 64 268 0.0 0.0 0.00 0.00 0.00 54 1017.4
20260504000052 66 268 0.0 1.0 0.00 0.00 0.00 51 1017.5
20260503234552 67 268 0.0 1.0 0.00 0.00 0.00 50 1017.4
20260503233052 68 267 0.0 2.0 0.00 0.00 0.00 43 1017.3
20260503231551 69 119 0.0 2.0 0.00 0.00 0.00 44 1017.4
20260503230051 69 277 0.0 2.0 0.00 0.00 0.00 44 1017.4
20260503224549 69 253 1.0 7.0 0.00 0.00 0.00 39 1017.5
20260503223048 69 246 1.0 5.0 0.00 0.00 0.00 40 1017.5
20260503221546 70 144 1.0 8.0 0.00 0.00 0.00 38 1017.8
20260503220050 70 296 0.0 6.0 0.00 0.00 0.00 40 1017.8
20260503214544 71 285 1.0 6.0 0.00 0.00 0.00 38 1017.9
20260503213047 71 144 0.0 7.0 0.00 0.00 0.00 39 1018.0
20260503211541 72 271 1.0 6.0 0.00 0.00 0.00 38 1018.2
20260503210040 72 288 0.0 8.0 0.00 0.00 0.00 38 1018.3
20260503204540 72 331 2.0 8.0 0.00 0.00 0.00 38 1018.5
20260503203038 71 199 2.0 10.0 0.00 0.00 0.00 40 1018.8
20260503201537 71 298 1.0 9.0 0.00 0.00 0.00 40 1019.1
20260503200042 71 303 1.0 6.0 0.00 0.00 0.00 41 1019.4
20260503194538 71 280 2.0 9.0 0.00 0.00 0.00 40 1019.7
20260503193036 71 295 2.0 7.0 0.00 0.00 0.00 39 1019.9
20260503191534 71 106 2.0 6.0 0.00 0.00 0.00 39 1020.2
20260503190033 70 214 2.0 10.0 0.00 0.00 0.00 39 1020.4
20260503184531 70 258 1.0 7.0 0.00 0.00 0.00 41 1020.7
20260503183129 69 271 2.0 8.0 0.00 0.00 0.00 40 1021.0
20260503181528 69 150 3.0 7.0 0.00 0.00 0.00 39 1021.1
20260503180026 69 292 0.0 3.0 0.00 0.00 0.00 43 1021.3
20260503174524 68 180 1.0 8.0 0.00 0.00 0.00 41 1021.5
20260503173022 67 269 1.0 9.0 0.00 0.00 0.00 42 1021.6
20260503171520 66 128 0.0 10.0 0.00 0.00 0.00 43 1021.7
20260503081540 46 132 0.0 0.0 0.00 0.00 0.00 92 1019.6
20260503071527 46 132 0.0 0.0 0.00 0.00 0.00 91 1019.2